Regional Weather Roundup
Issued by NWS

Home | Current Version | Previous Version | Graphics & Text | Print | Product List | Glossary On
Versions: 1 2 3 4 5 6 7 8 9 10 11 12 13 14 15 16 17 18 19 20 21 22 23 24 25 26 27 28 29 30 31 32 33 34 35 36 37 38 39 40 41 42 43 44 45 46 47 48 49 50
000
ASUS45 KCYS 040110
RWRWY

WYOMING REGIONAL WEATHER ROUNDUP
NATIONAL WEATHER SERVICE CHEYENNE WY
600 PM MST SAT DEC 03 2016

NOTE:  "FAIR" INDICATES FEW OR NO CLOUDS BELOW 12,000 FEET
WITH NO SIGNIFICANT WEATHER AND/OR OBSTRUCTIONS TO VISIBILITY.

WYZ001-040200-
YELLOWSTONE NATIONAL PARK

CITY           SKY/WX    TMP DP  RH WIND       PRES   REMARKS
LK YELLOWSTONE   N/A     16  13  88 CALM      30.05F
W YELLOWSTONE  NOT AVBL

$$
WYZ002>013-054>058-071-098>099-040200-
NORTHERN WYOMING

CITY           SKY/WX    TMP DP  RH WIND       PRES   REMARKS
JACKSON        CLOUDY    25  21  86 S15       30.10S WCI  12
CODY           FAIR      33  12  41 W18G28    29.97S WCI  22
GREYBULL       MOCLDY    32  16  51 SE6       29.99R WCI  26
WORLAND        FAIR      30  16  56 CALM      29.99R
SHERIDAN       CLOUDY    36  16  44 W8        29.93R WCI  30
BUFFALO        MOCLDY    35  10  35 NW8       29.93R WCI  29
GILLETTE       CLOUDY    31  20  63 W7        29.92S WCI  24
HULETT         FAIR      32  27  80 SW6       29.91S WCI  26
NEWCASTLE      FAIR      27  23  86 N5        29.94S WCI  21

$$
WYZ014>020-022>026-101>103-040200-
CENTRAL WYOMING

CITY           SKY/WX    TMP DP  RH WIND       PRES   REMARKS
BIG PINEY      FAIR      14   9  80 NE9       30.10R WCI   2
PINEDALE       FAIR      16  12  86 W3        30.10F
DUBOIS         CLOUDY    21  10  63 CALM      30.01F
LANDER         FAIR      28  11  48 SW10      30.01R WCI  19
RIVERTON       FAIR      31  10  41 NW26G36   29.99R WCI  17
CASPER         FAIR      29  14  53 SW15      29.97S WCI  18
DOUGLAS        FAIR      28  14  55 CALM      29.97S

$$
WYZ021-027>030-104>119-040200-
SOUTHERN WYOMING

CITY           SKY/WX    TMP DP  RH WIND       PRES   REMARKS
EVANSTON       CLOUDY    23  13  65 SW9       30.18S WCI  13
FORT BRIDGER   CLOUDY    24  18  78 W18G26    30.16F WCI  10
ROCK SPRINGS   FAIR      22  15  75 W23       30.12R WCI   6
DIXON          CLOUDY    26  16  65 S12       30.13S WCI  16
RAWLINS        CLOUDY    23  15  71 W25       30.04R WCI   7
SARATOGA       CLOUDY    23  18  80 SW14      30.06S WCI  11
LARAMIE        FAIR      20   6  55 NW8       29.99R WCI  10
CHEYENNE       FAIR      26  10  50 NW15      29.98R WCI  14
TORRINGTON     CLOUDY    35  13  40 W14       29.99R WCI  26
PINE BLUFFS    CLOUDY    32  12  43 NW21G29   30.00R WCI  20

$$



USA.gov is the U.S. government's official web portal to all federal, state and local government web resources and services.